Wind_Speed
14 14 14 15 15 15 15 15 15 16 16 17 17 18 19 19 20 20 21 21 22 23 24 24 24 24 25 25 25 25 25 25 25 26 26 27 27 27 27 27 27 27 26 26 25 25 26 26 27 28 28 28 28 30 30 30 30 31 31 31 30 30 32
14 14 15 15 15 15 15 15 15 16 16 17 17 18 19 19 20 21 21 22 23 23 24 24 25 25 25 25 25 25 25 26 26 26 26 27 27 27 28 28 28 28 27 26 26 26 26 26 27 28 29 28 28 29 30 30 30 31 31 31 30 30 31
14 14 15 15 15 15 15 15 15 16 16 17 18 18 19 19 20 21 21 22 23 24 25 25 25 25 26 26 26 26 26 26 26 26 27 27 27 28 28 28 29 29 28 27 27 27 27 26 26 27 29 29 29 29 30 31 31 31 32 32 32 31 32
14 14 15 15 15 15 16 16 16 16 17 17 18 18 19 20 20 21 21 22 23 24 25 25 25 26 26 26 26 27 27 27 27 27 27 27 28 28 29 29 29 30 29 29 28 28 28 27 27 27 28 30 29 29 30 32 32 32 33 34 36 34 33
14 14 15 15 15 16 16 16 16 17 17 17 18 19 20 20 21 21 22 22 23 24 24 25 25 26 26 27 27 27 27 28 28 27 27 27 28 28 29 29 30 30 30 30 30 30 30 29 28 27 28 30 29 28 30 32 32 32 32 34 36 37 36
15 15 15 15 15 16 16 16 16 17 18 18 19 20 20 21 22 23 23 23 24 24 25 25 26 26 26 27 27 27 27 28 28 28 28 28 28 28 29 30 30 30 31 31 30 31 31 30 29 28 28 29 29 28 29 31 32 32 32 33 35 37 37
15 15 15 15 15 16 16 17 17 18 19 20 21 21 22 23 24 24 24 25 25 25 25 26 26 27 27 27 27 27 27 28 28 28 29 29 29 29 29 30 30 30 30 30 31 31 31 31 31 30 29 28 28 28 29 31 32 31 31 33 35 35 36
15 15 15 15 15 16 16 17 18 19 20 21 22 23 24 25 26 26 27 27 27 27 27 27 27 27 27 28 28 28 28 28 29 29 29 30 30 30 30 30 30 31 31 30 30 31 32 32 32 32 31 29 28 27 28 31 32 32 32 33 34 35 36
16 16 16 16 16 16 17 18 19 20 21 23 24 25 26 27 28 29 29 29 29 29 29 28 28 28 28 29 29 29 29 30 30 30 30 31 31 31 31 31 31 31 31 31 31 31 32 33 33 33 33 32 31 28 27 29 31 31 33 34 34 35 37
16 16 17 17 17 18 18 19 20 21 23 24 26 27 28 29 30 30 30 30 30 30 30 30 30 30 30 30 30 31 31 31 32 32 32 32 32 32 33 33 33 32 32 32 32 32 32 32 33 34 35 34 34 32 29 28 28 30 32 34 35 36 36
17 17 18 19 19 19 20 20 22 23 24 26 27 29 30 30 31 31 31 31 31 31 31 31 32 32 32 32 33 33 33 33 33 33 33 33 33 34 34 34 34 34 33 33 34 34 33 33 33 34 35 36 36 35 33 30 27 28 31 33 34 36 36
18 18 19 20 20 21 21 22 23 24 25 27 28 30 31 32 32 32 32 32 32 32 32 33 33 33 34 34 34 35 35 35 35 35 35 35 34 34 35 35 35 35 35 35 35 35 35 34 33 33 35 36 36 36 36 34 30 28 31 32 33 35 36
19 20 21 22 22 22 23 24 24 26 27 28 30 31 32 32 33 33 32 33 33 34 34 34 34 34 35 35 35 36 36 36 36 37 37 36 36 36 36 36 36 36 36 36 36 37 37 37 36 35 35 36 37 37 38 37 33 30 31 33 32 34 36
20 21 22 23 23 24 24 25 26 27 29 30 31 32 32 33 33 33 34 34 35 35 34 34 34 35 35 36 36 36 37 37 37 37 38 38 37 37 38 38 38 38 38 38 38 38 37 38 38 37 37 37 37 38 39 39 37 32 31 33 34 34 36
21 22 23 24 25 25 26 27 28 29 31 32 32 33 34 34 33 34 35 35 35 35 35 34 34 35 35 35 36 36 37 37 38 38 38 39 39 39 39 39 40 40 40 39 39 39 39 39 39 38 38 39 38 38 40 41 40 36 33 33 34 34 36
22 23 24 25 26 27 28 29 30 31 33 34 34 35 35 34 34 35 35 36 36 35 35 34 34 34 35 35 36 36 37 37 38 38 39 39 39 40 40 40 41 41 41 41 41 41 41 41 41 40 39 40 40 39 40 42 42 40 36 34 35 35 36
23 24 26 27 27 28 29 31 32 33 34 35 36 36 36 35 35 36 36 36 35 35 34 34 35 35 35 36 37 37 38 38 38 38 39 39 40 40 40 41 41 41 41 42 42 42 43 43 43 43 42 41 42 41 41 41 43 43 40 35 36 37 36
25 26 27 28 29 30 31 32 33 34 36 37 37 37 36 35 36 37 37 36 35 35 35 35 35 36 36 37 37 37 38 38 38 39 39 40 40 40 41 41 41 42 42 42 43 43 43 44 44 45 45 44 43 43 42 42 43 44 43 38 36 37 38
26 28 29 29 30 31 32 33 34 35 37 38 38 37 36 36 37 37 36 35 35 35 35 35 36 36 36 37 37 38 38 38 39 39 40 40 41 42 42 42 42 43 43 43 43 43 44 44 45 45 46 46 45 45 44 43 44 45 45 42 38 38 39
28 29 30 30 31 32 33 34 35 36 37 38 37 36 36 37 37 37 36 35 35 35 36 36 36 37 37 37 38 38 39 40 40 41 42 42 43 44 44 45 45 45 45 45 45 45 45 45 45 45 46 46 46 46 45 45 45 46 46 45 41 39 39
29 30 31 31 32 33 34 35 36 37 37 37 37 36 37 37 37 36 36 36 36 36 36 36 37 38 38 39 39 40 40 41 42 43 44 44 45 46 46 47 47 47 48 48 48 48 48 48 47 47 47 47 47 47 47 46 47 47 47 47 45 42 41
30 31 32 32 33 33 34 36 36 37 37 37 37 36 37 37 37 36 36 36 36 37 37 37 37 38 38 39 40 40 41 42 43 43 44 45 45 46 46 47 47 48 48 49 50 50 51 51 50 49 48 49 49 49 48 48 48 48 48 49 48 45 44
31 32 32 33 33 34 35 36 36 37 37 37 36 36 37 37 37 37 37 37 37 38 38 38 38 38 39 40 40 41 42 42 43 43 43 43 44 45 45 46 46 47 48 48 49 50 51 52 53 52 51 51 50 50 50 50 50 50 49 49 49 48 47
32 32 33 33 34 35 36 36 37 37 37 36 36 36 36 36 36 36 37 37 38 38 38 38 39 40 41 41 42 42 42 42 42 42 42 42 43 43 44 45 46 47 47 48 49 49 51 52 53 54 55 54 53 52 51 51 51 52 51 50 49 49 49
33 33 34 34 35 36 36 36 37 36 35 35 35 35 35 36 36 36 37 38 38 38 39 39 40 41 41 42 42 41 41 41 41 41 42 42 43 44 44 45 46 47 48 48 49 50 51 52 53 54 56 56 57 56 55 53 52 52 53 52 51 50 50
34 34 35 35 36 37 36 36 36 35 34 34 34 34 35 35 36 36 37 37 37 38 39 40 41 42 42 41 41 41 41 42 42 42 43 44 44 45 45 46 47 47 48 49 50 50 51 52 53 54 55 57 58 58 58 57 55 53 53 54 53 51 50
35 35 36 37 36 36 35 34 33 33 33 34 33 33 34 34 35 36 36 36 37 38 40 41 41 41 41 41 41 41 42 43 44 44 45 45 46 46 46 47 47 47 48 49 50 51 52 53 53 54 54 56 57 59 59 59 59 56 54 53 54 53 52
36 36 37 37 36 34 32 31 32 32 33 33 32 32 33 33 34 34 35 36 38 39 40 40 40 40 40 40 41 42 43 44 44 45 45 46 46 46 46 47 47 48 49 50 51 52 53 54 54 54 54 55 56 57 59 59 60 59 57 54 53 54 53
36 36 36 35 32 30 29 30 31 32 31 31 31 32 32 32 33 33 35 37 38 39 39 39 38 39 39 40 41 42 43 43 44 44 44 45 45 46 46 46 47 48 49 50 50 52 53 54 55 55 56 56 55 55 56 57 58 59 58 56 53 53 54
35 34 32 30 27 27 28 29 30 30 30 30 31 31 31 31 32 34 36 37 37 37 37 37 37 38 39 40 41 41 42 42 42 42 43 43 44 45 45 46 47 48 49 49 50 51 52 54 55 55 55 55 55 55 54 55 55 56 57 55 54 53 53
31 28 26 24 25 26 28 28 28 29 29 29 29 29 30 31 33 34 35 36 36 36 36 36 37 38 39 40 40 40 40 40 40 40 41 42 43 43 45 45 46 48 49 50 51 52 53 54 55 55 55 54 53 53 52 52 51 52 53 52 52 53 53
24 22 22 24 25 26 26 27 27 28 28 28 28 29 30 32 33 34 35 35 35 35 35 36 37 38 38 38 38 38 38 38 39 39 40 41 41 42 42 43 44 46 47 49 51 52 53 54 54 53 52 51 50 49 49 48 47 47 48 48 49 52 53
21 22 23 24 25 25 25 26 26 27 27 27 28 30 31 32 33 34 34 34 35 35 36 36 37 37 37 37 37 36 36 37 38 38 39 40 40 40 40 41 42 44 45 47 49 51 51 51 50 48 46 45 44 43 42 41 41 41 41 41 42 45 49
21 22 23 23 24 24 25 25 26 26 27 28 29 30 31 32 32 33 33 34 34 35 36 36 36 36 36 35 35 35 36 37 37 38 39 39 39 39 39 40 41 42 44 45 47 49 50 49 46 42 37 35 34 32 31 30 30 32 34 34 33 34 38
21 22 22 22 23 24 24 25 25 26 27 28 29 30 30 31 32 32 33 34 34 35 35 35 35 35 34 33 34 34 36 37 38 39 39 38 38 38 39 40 41 41 43 44 47 50 49 47 41 32 27 28 27 23 21 18 17 20 25 28 29 31 35
20 21 21 22 23 24 24 25 25 26 27 28 28 29 30 30 31 32 33 33 34 34 34 34 33 32 32 32 33 34 36 38 38 38 38 37 38 38 39 40 40 41 43 44 48 50 48 44 36 24 21 26 25 17 13 10 11 13 17 21 24 29 34
20 20 21 22 23 23 24 24 25 26 27 27 28 29 29 30 31 31 32 33 33 33 32 31 31 30 30 32 33 34 36 37 37 37 37 37 38 38 39 40 40 41 43 45 48 51 47 41 31 19 18 24 22 14 8 6 9 9 12 17 21 25 28
Wind_Direction
264 268 270 273 276 278 280 283 286 288 289 291 292 294 295 296 298 299 299 300 301 302 303 304 305 305 305 305 305 306 306 307 307 307 308 309 308 308 308 307 306 305 305 305 304 303 303 305 305 304 302 298 293 290 284 278 274 271 270 270 274 275 268
265 268 270 272 276 279 281 285 288 290 291 293 294 295 296 297 298 299 300 301 302 303 304 304 304 304 304 305 305 305 306 306 306 306 307 308 308 307 307 307 306 305 305 305 305 304 304 304 304 303 303 299 294 291 286 281 276 272 270 270 272 275 270
267 271 273 276 278 281 284 287 290 292 294 296 296 296 297 298 299 300 301 302 303 303 303 304 304 304 304 305 305 305 306 305 305 306 306 307 307 307 307 307 307 306 305 305 306 306 306 306 305 302 302 301 298 295 290 284 279 275 271 268 269 271 272
270 273 276 278 280 283 286 289 291 294 296 297 298 298 299 300 300 301 302 303 303 303 303 303 304 305 305 305 305 305 305 305 305 305 305 306 306 307 307 307 307 307 307 307 306 306 306 306 307 306 302 301 301 298 293 287 283 279 274 270 267 268 272
271 272 275 276 280 283 286 290 294 296 298 299 300 301 301 302 303 303 304 303 303 302 303 303 303 304 304 304 304 304 304 304 304 304 304 304 305 305 306 306 307 307 307 307 307 307 307 307 309 308 305 302 302 299 295 290 286 283 279 275 270 268 270
270 270 272 275 279 284 288 292 295 297 299 300 301 303 303 304 305 305 304 304 303 303 303 303 303 302 303 303 303 303 303 302 302 303 303 303 303 304 304 305 305 305 306 307 307 306 306 306 307 307 306 306 303 299 295 292 288 285 283 278 272 268 268
270 269 271 274 279 284 289 292 295 298 300 302 303 303 303 304 304 304 305 304 304 304 304 303 303 302 302 302 302 302 301 301 301 300 301 301 301 302 302 302 303 303 304 304 305 305 304 304 305 305 306 307 306 300 294 291 290 288 284 277 272 267 266
269 269 270 274 279 284 289 292 295 299 301 303 304 304 304 304 304 304 304 304 304 304 304 304 303 303 303 303 302 301 300 299 299 299 298 298 298 299 299 300 300 301 302 303 303 303 303 304 304 304 304 304 305 302 296 291 290 289 285 279 273 267 264
269 271 272 275 278 282 287 290 294 297 299 301 303 304 304 305 305 305 304 304 303 303 303 302 303 303 303 303 302 301 300 299 298 298 297 297 297 297 297 297 298 298 299 301 301 302 302 302 302 302 302 302 301 301 299 294 290 289 286 282 276 269 265
269 273 274 276 278 281 285 288 292 295 297 299 302 304 305 305 305 305 303 302 302 301 301 301 302 302 302 302 301 301 300 299 298 298 297 297 297 297 296 296 296 296 297 298 298 299 299 300 300 300 301 300 299 299 299 296 293 290 287 284 280 274 268
270 274 276 277 279 282 285 288 290 293 295 298 301 302 303 304 304 303 302 301 300 300 301 301 301 301 301 300 299 298 298 297 297 296 296 296 296 296 296 295 295 295 295 295 295 296 296 296 297 298 298 299 299 298 297 296 296 293 288 284 281 278 273
272 275 278 279 282 284 286 289 291 294 297 299 300 301 302 303 303 303 301 300 300 300 301 301 301 301 300 299 298 297 296 295 295 295 295 295 295 295 295 294 294 294 294 294 293 293 294 294 294 295 295 297 297 297 296 294 295 295 291 287 281 278 274
274 277 279 282 285 286 289 291 293 296 298 300 301 301 302 303 303 303 302 302 301 301 301 301 300 300 299 298 298 297 296 295 294 294 294 295 295 294 294 294 293 293 293 292 292 291 291 292 292 292 292 293 294 295 295 293 292 293 292 291 286 279 275
274 278 281 284 287 288 291 294 296 298 300 301 301 302 303 304 303 303 304 304 304 303 302 302 301 300 299 299 298 298 297 296 295 294 293 293 293 292 292 292 291 291 291 290 290 289 289 289 289 290 289 289 291 291 292 292 291 291 290 290 290 285 279
274 279 283 285 288 290 293 295 297 299 300 301 302 304 305 304 304 304 305 306 305 304 303 303 302 301 300 300 299 298 297 296 295 294 293 292 292 291 290 290 289 289 289 288 288 288 287 286 286 286 287 286 287 288 289 290 290 290 289 287 288 287 283
276 280 283 286 288 291 293 295 297 299 301 302 303 305 305 305 305 306 307 307 307 306 305 304 303 302 301 300 299 298 296 295 294 293 292 291 291 290 289 288 288 287 287 287 286 286 286 285 284 283 283 283 283 283 284 286 288 289 288 286 284 285 284
277 280 283 286 288 290 292 295 297 299 301 303 304 305 306 305 306 307 308 308 307 307 306 305 304 303 302 300 299 298 296 295 294 293 292 291 290 289 288 287 286 286 285 285 285 285 284 284 284 283 281 280 280 280 280 281 283 285 285 285 283 282 283
277 279 282 285 287 289 292 294 297 299 301 303 305 306 305 305 307 308 308 307 307 306 305 305 303 302 301 300 299 298 296 295 294 293 292 291 290 289 288 287 286 285 285 284 284 283 283 282 282 282 281 280 278 277 277 276 278 280 281 281 281 280 280
275 277 280 282 285 288 291 294 297 299 302 304 305 305 305 305 306 306 306 306 306 306 305 304 303 302 301 300 299 299 298 297 296 295 295 294 293 292 290 289 288 287 286 285 284 283 282 281 281 280 280 279 278 277 275 274 274 275 277 277 277 277 278
273 275 278 280 284 288 290 293 297 300 302 304 305 305 305 305 305 305 306 307 306 306 305 304 304 303 302 302 302 301 301 300 299 298 297 296 295 294 293 292 291 290 288 287 285 284 283 281 280 279 278 278 277 276 275 273 272 271 273 274 273 273 274
271 274 276 280 283 287 290 293 296 300 302 304 305 305 304 305 305 306 307 307 306 306 305 305 305 305 304 304 303 303 302 301 300 299 298 297 296 295 294 293 292 291 290 288 287 285 283 281 279 278 277 276 275 275 274 272 271 269 269 270 270 270 271
270 272 275 279 282 285 289 293 296 299 302 303 303 303 304 304 306 307 307 307 306 305 305 305 305 305 304 303 303 302 301 300 299 298 297 296 295 294 293 292 291 291 290 289 289 287 286 284 281 279 276 275 274 273 272 271 270 268 267 267 268 268 268
270 272 275 278 281 285 288 291 295 299 301 301 302 302 303 305 307 307 307 306 305 305 305 305 304 304 303 303 303 302 301 300 298 297 296 295 294 293 292 292 291 290 290 289 289 288 288 287 285 283 280 276 273 271 269 269 268 267 266 265 265 265 266
269 271 273 277 280 284 287 290 294 297 299 300 300 302 304 306 307 307 306 305 305 305 305 305 305 305 305 304 304 302 301 300 298 297 296 296 295 295 294 293 292 292 291 290 289 288 287 287 286 285 283 281 277 273 269 266 265 265 265 263 263 263 263
267 269 272 276 279 282 286 290 294 296 297 298 300 302 305 306 306 306 305 305 306 306 306 306 306 306 306 305 304 303 302 301 300 300 299 298 298 297 297 296 295 294 293 292 291 289 288 287 286 285 283 282 280 277 273 269 264 262 262 261 260 260 261
265 268 270 274 277 280 285 290 292 294 296 298 301 304 305 306 305 305 305 305 306 306 306 307 307 307 307 306 306 305 304 304 303 303 302 302 301 300 300 299 299 298 297 295 294 292 290 289 287 285 284 282 280 278 275 272 268 263 260 258 258 257 257
262 265 268 271 275 280 285 288 291 293 296 299 302 304 304 305 304 305 305 305 306 307 307 308 308 308 308 308 307 307 307 306 306 306 305 305 305 304 303 303 302 301 300 299 297 295 293 291 289 287 284 282 280 278 275 273 270 266 261 258 255 254 253
257 260 264 269 274 280 284 287 290 293 297 300 302 303 303 303 304 304 305 305 307 308 309 309 309 309 309 309 309 308 308 308 308 308 308 308 307 306 306 305 304 303 302 302 300 299 297 294 292 289 286 283 280 277 275 272 269 267 263 259 255 253 251
252 257 263 269 275 280 284 288 291 294 298 300 301 302 302 302 303 303 305 307 308 309 309 309 309 309 310 309 310 310 310 310 310 310 310 310 309 309 308 307 306 305 304 303 302 301 300 298 295 293 290 286 283 278 275 271 267 265 262 258 255 252 250
255 261 267 272 278 283 286 289 293 295 298 300 300 300 300 301 302 304 306 308 309 309 309 309 309 309 310 310 310 311 312 312 313 313 313 313 313 312 312 311 310 309 308 307 305 304 303 301 299 297 293 290 286 281 276 271 267 263 260 257 253 250 249
262 267 273 278 283 286 288 291 294 296 298 298 298 299 300 302 304 306 308 308 308 308 308 309 309 309 310 311 312 313 314 315 315 316 316 316 317 317 316 316 315 314 313 312 311 309 308 306 304 301 298 293 288 282 277 271 266 262 258 255 250 247 246
268 274 279 283 285 287 290 292 295 296 296 296 297 299 301 304 306 307 307 308 308 308 308 308 309 310 311 313 314 315 316 317 317 319 320 320 321 320 320 319 319 318 318 316 315 313 312 311 309 305 300 294 288 282 276 270 264 260 256 252 248 245 243
276 280 282 284 286 289 291 293 294 294 294 296 298 301 303 306 306 307 307 307 307 307 307 308 310 312 313 314 315 316 318 319 320 322 323 323 323 322 322 323 322 322 321 319 318 318 318 317 314 309 303 296 290 285 278 270 263 256 251 247 246 243 241
279 281 283 285 288 290 291 292 292 293 294 297 300 303 305 306 306 307 307 306 306 307 308 310 311 313 314 315 317 319 321 322 324 326 326 326 326 326 326 326 326 325 324 324 326 327 327 326 322 316 310 305 299 292 283 272 262 253 244 237 237 239 238
280 282 285 288 289 290 290 291 292 293 296 300 303 304 305 306 306 306 306 305 306 307 309 311 312 314 316 318 320 322 325 327 328 328 328 329 330 331 331 330 330 329 329 332 335 337 337 334 328 324 325 326 319 305 288 270 252 246 239 231 231 235 235
281 285 287 288 288 289 289 290 293 296 299 302 303 304 305 305 305 305 305 306 307 309 311 313 314 317 319 322 325 327 329 331 331 331 332 333 334 335 335 335 335 336 338 341 343 345 344 340 334 331 337 341 337 318 292 254 223 232 236 229 231 237 237
285 287 287 287 287 288 289 292 295 298 301 302 303 304 305 304 304 305 306 308 310 312 313 315 317 321 323 326 329 331 333 333 333 334 336 337 338 339 339 340 342 344 346 349 350 351 350 346 340 332 335 345 343 322 292 220 200 221 228 227 232 237 239
Height
5826 5827 5827 5827 5827 5827 5827 5827 5827 5827 5826 5826 5825 5825 5824 5823 5822 5821 5820 5820 5819 5817 5816 5815 5814 5813 5812 5811 5809 5808 5807 5806 5805 5803 5802 5801 5800 5798 5797 5796 5795 5793 5792 5790 5789 5787 5786 5784 5782 5780 5778 5777 5776 5775 5774 5774 5773 5773 5774 5774 5774 5773 5773
5824 5825 5825 5825 5825 5825 5825 5825 5825 5825 5824 5824 5823 5823 5822 5821 5820 5819 5818 5817 5816 5815 5814 5813 5812 5811 5810 5808 5807 5806 5805 5804 5803 5801 5800 5798 5797 5796 5795 5793 5792 5790 5789 5788 5786 5784 5783 5782 5780 5777 5775 5775 5774 5772 5771 5770 5770 5770 5770 5770 5770 5770 5770
5822 5822 5823 5823 5823 5823 5823 5823 5823 5823 5822 5822 5821 5820 5820 5819 5818 5817 5816 5815 5814 5813 5812 5811 5809 5808 5807 5806 5805 5804 5802 5801 5800 5799 5797 5796 5795 5793 5792 5791 5789 5787 5786 5785 5783 5781 5780 5778 5777 5774 5772 5771 5770 5769 5768 5767 5767 5767 5767 5766 5766 5766 5767
5820 5820 5821 5821 5821 5821 5821 5821 5821 5820 5820 5819 5819 5818 5818 5817 5816 5815 5814 5813 5812 5811 5809 5808 5807 5805 5804 5803 5802 5801 5799 5798 5797 5796 5795 5794 5792 5791 5789 5788 5786 5785 5783 5782 5780 5778 5777 5775 5774 5772 5769 5768 5767 5766 5764 5763 5763 5763 5763 5763 5762 5762 5763
5818 5818 5819 5819 5818 5818 5818 5818 5818 5818 5818 5817 5817 5816 5815 5814 5814 5813 5812 5811 5810 5808 5807 5806 5804 5803 5802 5800 5799 5798 5797 5795 5794 5793 5792 5791 5790 5788 5787 5785 5784 5782 5780 5778 5777 5775 5773 5772 5771 5769 5767 5765 5764 5763 5761 5759 5759 5759 5759 5759 5758 5758 5758
5816 5816 5816 5816 5816 5816 5816 5816 5816 5816 5815 5815 5814 5814 5813 5812 5811 5810 5810 5809 5807 5806 5805 5803 5802 5801 5799 5798 5796 5795 5794 5793 5791 5790 5789 5788 5787 5785 5784 5782 5781 5779 5778 5776 5774 5772 5770 5769 5768 5766 5765 5763 5761 5760 5758 5756 5755 5755 5756 5755 5754 5754 5753
5814 5814 5814 5814 5814 5814 5814 5814 5814 5813 5813 5812 5812 5811 5811 5810 5809 5808 5807 5806 5805 5803 5802 5801 5799 5798 5797 5795 5794 5792 5791 5789 5788 5787 5786 5785 5783 5782 5781 5779 5778 5776 5775 5774 5772 5770 5768 5766 5765 5763 5762 5760 5758 5757 5755 5753 5752 5752 5751 5750 5749 5749 5749
5812 5812 5812 5812 5812 5812 5812 5812 5812 5811 5811 5810 5809 5809 5808 5807 5806 5805 5804 5803 5802 5800 5799 5798 5796 5795 5794 5792 5791 5789 5788 5786 5785 5784 5782 5781 5780 5779 5777 5776 5774 5773 5771 5770 5769 5767 5765 5763 5761 5759 5758 5757 5756 5754 5752 5750 5749 5748 5747 5745 5744 5744 5744
5810 5810 5811 5811 5811 5810 5810 5810 5810 5809 5808 5808 5807 5806 5805 5804 5803 5802 5801 5799 5798 5797 5796 5795 5793 5791 5790 5789 5787 5786 5784 5783 5781 5780 5779 5777 5776 5775 5773 5772 5771 5769 5767 5766 5765 5763 5762 5760 5758 5756 5754 5753 5752 5751 5750 5748 5746 5744 5742 5741 5740 5739 5739
5808 5808 5809 5809 5809 5808 5808 5808 5807 5807 5806 5805 5805 5804 5803 5802 5800 5799 5798 5796 5795 5794 5792 5791 5789 5788 5786 5785 5784 5782 5781 5779 5778 5776 5775 5774 5772 5771 5769 5767 5766 5765 5764 5762 5761 5759 5758 5756 5755 5753 5751 5749 5747 5747 5746 5745 5744 5742 5738 5736 5736 5734 5734
5806 5806 5806 5806 5806 5806 5806 5805 5805 5804 5804 5803 5802 5801 5800 5799 5797 5796 5794 5793 5792 5790 5789 5787 5785 5784 5783 5781 5780 5779 5777 5776 5774 5772 5771 5770 5768 5766 5765 5763 5762 5760 5759 5758 5756 5755 5754 5753 5751 5749 5747 5745 5743 5742 5741 5741 5741 5739 5735 5733 5731 5730 5730
5803 5804 5804 5804 5804 5803 5803 5803 5802 5802 5801 5800 5800 5799 5797 5796 5794 5792 5791 5789 5788 5786 5785 5783 5782 5780 5779 5778 5777 5775 5774 5772 5770 5769 5767 5765 5764 5762 5760 5759 5757 5756 5754 5753 5751 5750 5749 5748 5747 5746 5743 5741 5740 5738 5736 5735 5736 5736 5732 5730 5728 5726 5725
5800 5801 5801 5801 5801 5801 5800 5800 5800 5799 5798 5797 5797 5795 5794 5792 5790 5789 5787 5786 5784 5783 5781 5779 5778 5776 5775 5774 5772 5771 5769 5768 5766 5764 5763 5761 5759 5757 5756 5754 5752 5751 5749 5748 5747 5745 5744 5742 5742 5741 5739 5738 5736 5734 5731 5729 5730 5732 5729 5726 5724 5723 5721
5798 5798 5798 5798 5798 5797 5797 5796 5796 5796 5795 5794 5793 5792 5790 5789 5787 5785 5784 5782 5781 5779 5777 5776 5774 5772 5771 5769 5768 5766 5765 5763 5761 5760 5758 5756 5755 5753 5751 5749 5747 5746 5744 5743 5742 5740 5739 5737 5736 5735 5734 5733 5732 5730 5727 5725 5725 5726 5726 5722 5719 5718 5716
5795 5795 5795 5795 5794 5794 5794 5793 5793 5792 5791 5790 5789 5788 5786 5785 5783 5782 5780 5778 5777 5775 5773 5772 5770 5768 5767 5765 5764 5762 5760 5759 5757 5755 5753 5751 5749 5748 5746 5744 5742 5741 5739 5738 5736 5735 5733 5732 5731 5730 5729 5727 5727 5725 5722 5720 5719 5720 5721 5719 5716 5714 5712
5792 5792 5792 5792 5791 5791 5790 5790 5789 5789 5788 5786 5785 5784 5782 5781 5779 5778 5776 5774 5772 5771 5769 5767 5766 5764 5762 5761 5759 5757 5755 5754 5752 5750 5748 5746 5744 5742 5741 5739 5737 5735 5734 5732 5731 5729 5727 5726 5725 5725 5724 5722 5721 5720 5718 5715 5713 5713 5715 5715 5712 5710 5709
5790 5789 5789 5788 5788 5788 5787 5787 5786 5785 5784 5783 5781 5780 5778 5777 5775 5773 5772 5770 5768 5767 5765 5763 5761 5760 5758 5756 5754 5753 5751 5749 5747 5745 5743 5741 5739 5737 5735 5734 5732 5730 5728 5727 5725 5723 5722 5720 5719 5718 5718 5716 5715 5714 5713 5711 5709 5707 5708 5710 5709 5706 5705
5787 5786 5786 5785 5785 5785 5784 5784 5783 5782 5780 5779 5777 5776 5774 5773 5771 5770 5768 5766 5765 5763 5761 5759 5757 5755 5754 5752 5750 5748 5746 5744 5742 5740 5738 5736 5734 5732 5730 5728 5726 5724 5723 5721 5719 5718 5716 5714 5713 5712 5711 5710 5709 5708 5707 5706 5704 5702 5701 5703 5704 5702 5700
5784 5783 5783 5782 5782 5782 5781 5780 5779 5778 5777 5775 5774 5772 5771 5769 5768 5766 5764 5763 5761 5759 5757 5755 5753 5751 5749 5747 5745 5743 5740 5738 5736 5734 5732 5730 5728 5726 5724 5722 5720 5718 5716 5715 5713 5711 5710 5708 5707 5705 5704 5703 5702 5701 5701 5700 5698 5696 5695 5696 5697 5697 5695
5780 5780 5780 5779 5779 5778 5778 5777 5776 5775 5773 5772 5770 5768 5767 5766 5764 5762 5760 5759 5757 5755 5753 5750 5749 5746 5744 5742 5740 5738 5735 5733 5730 5728 5726 5724 5721 5719 5717 5715 5713 5711 5709 5708 5706 5704 5703 5702 5700 5699 5697 5696 5695 5694 5694 5693 5692 5691 5689 5689 5690 5691 5690
5777 5777 5776 5776 5776 5775 5774 5773 5772 5771 5769 5768 5766 5765 5763 5762 5760 5758 5756 5754 5752 5750 5748 5746 5744 5741 5739 5737 5735 5732 5729 5727 5724 5722 5720 5717 5715 5713 5711 5708 5706 5704 5702 5700 5698 5696 5695 5694 5693 5692 5690 5689 5688 5687 5687 5686 5685 5684 5683 5682 5683 5684 5684
5774 5773 5773 5773 5772 5771 5770 5769 5768 5767 5766 5764 5762 5761 5760 5758 5756 5754 5752 5750 5748 5746 5744 5742 5739 5737 5734 5732 5730 5727 5724 5722 5719 5717 5714 5711 5709 5707 5704 5702 5700 5697 5695 5692 5690 5688 5686 5684 5683 5683 5683 5681 5680 5680 5679 5679 5678 5677 5677 5676 5676 5677 5677
5770 5770 5769 5769 5768 5768 5767 5766 5765 5763 5762 5760 5759 5757 5756 5754 5752 5750 5748 5746 5744 5742 5739 5737 5734 5732 5730 5727 5725 5722 5719 5717 5714 5711 5709 5706 5703 5701 5698 5696 5693 5691 5689 5686 5683 5680 5678 5675 5673 5672 5672 5672 5672 5672 5671 5671 5670 5669 5669 5669 5670 5670 5670
5766 5766 5766 5765 5765 5764 5763 5762 5761 5760 5758 5757 5755 5753 5751 5749 5747 5745 5743 5741 5739 5737 5735 5732 5729 5727 5724 5721 5719 5716 5714 5711 5708 5706 5703 5700 5698 5695 5692 5690 5687 5685 5682 5680 5677 5674 5671 5668 5666 5663 5662 5661 5661 5661 5662 5662 5662 5661 5661 5662 5663 5663 5663
5763 5762 5762 5762 5761 5760 5759 5759 5757 5756 5754 5753 5751 5749 5747 5745 5743 5741 5739 5737 5735 5732 5730 5727 5724 5722 5719 5716 5713 5711 5708 5705 5703 5700 5697 5695 5692 5689 5686 5683 5680 5677 5675 5672 5670 5667 5664 5661 5659 5656 5653 5651 5650 5650 5650 5652 5653 5653 5653 5653 5655 5656 5656
5759 5759 5758 5758 5757 5757 5756 5755 5754 5752 5751 5749 5746 5744 5742 5740 5738 5736 5734 5732 5730 5727 5725 5722 5719 5716 5713 5711 5708 5705 5702 5700 5697 5694 5691 5688 5686 5683 5679 5676 5673 5670 5667 5664 5662 5659 5656 5654 5651 5648 5645 5643 5641 5639 5639 5640 5642 5644 5644 5644 5645 5648 5648
5755 5755 5754 5754 5753 5753 5752 5751 5750 5748 5746 5744 5742 5740 5738 5736 5734 5732 5730 5727 5725 5723 5720 5717 5714 5711 5708 5705 5703 5700 5697 5694 5691 5688 5685 5682 5679 5675 5672 5669 5666 5662 5659 5656 5653 5650 5647 5645 5643 5640 5637 5634 5632 5630 5629 5629 5630 5632 5634 5635 5636 5638 5639
5750 5750 5750 5750 5749 5749 5748 5747 5746 5744 5742 5740 5738 5736 5734 5732 5730 5728 5725 5723 5721 5718 5715 5712 5710 5707 5704 5701 5698 5695 5692 5688 5685 5681 5678 5675 5672 5669 5665 5662 5658 5655 5652 5648 5644 5641 5638 5635 5633 5630 5627 5625 5622 5620 5618 5618 5618 5619 5622 5625 5626 5628 5630
5746 5746 5746 5746 5746 5745 5744 5743 5742 5740 5738 5736 5734 5732 5730 5728 5725 5723 5721 5719 5716 5714 5711 5708 5705 5702 5699 5696 5693 5690 5687 5683 5680 5676 5673 5669 5666 5662 5659 5656 5652 5648 5645 5641 5637 5633 5629 5626 5623 5619 5616 5614 5611 5609 5607 5606 5607 5607 5609 5613 5616 5618 5621
5742 5742 5743 5742 5742 5741 5740 5739 5738 5736 5734 5732 5730 5728 5726 5724 5721 5719 5717 5715 5712 5710 5707 5705 5702 5699 5696 5692 5689 5686 5683 5679 5675 5672 5668 5664 5661 5657 5653 5649 5646 5642 5638 5634 5630 5626 5621 5617 5613 5609 5605 5602 5599 5597 5596 5595 5595 5596 5598 5601 5605 5608 5610
5740 5740 5739 5739 5738 5737 5736 5735 5734 5732 5730 5728 5726 5724 5722 5720 5718 5715 5713 5711 5709 5706 5704 5701 5698 5695 5692 5689 5686 5682 5679 5675 5671 5668 5664 5660 5656 5652 5648 5643 5639 5635 5631 5626 5622 5618 5613 5608 5603 5599 5594 5590 5587 5584 5583 5583 5584 5585 5587 5590 5594 5597 5600
5737 5736 5735 5735 5734 5734 5732 5731 5729 5728 5726 5724 5723 5721 5718 5716 5714 5712 5709 5707 5705 5703 5700 5697 5695 5692 5688 5685 5682 5679 5675 5672 5668 5664 5660 5656 5652 5648 5643 5639 5634 5629 5625 5620 5615 5610 5605 5600 5594 5588 5583 5579 5575 5572 5571 5571 5573 5574 5577 5580 5584 5587 5590
5733 5733 5732 5732 5731 5730 5728 5727 5725 5724 5722 5720 5719 5717 5714 5712 5710 5708 5706 5704 5702 5699 5697 5694 5691 5688 5685 5682 5679 5675 5672 5668 5664 5661 5657 5652 5648 5644 5639 5635 5630 5625 5620 5614 5608 5603 5597 5591 5585 5578 5573 5568 5564 5562 5560 5561 5562 5565 5568 5572 5576 5579 5582
5730 5730 5729 5728 5727 5726 5724 5723 5722 5720 5718 5717 5715 5713 5711 5709 5707 5705 5702 5700 5698 5696 5693 5691 5688 5685 5682 5679 5675 5672 5668 5664 5661 5657 5653 5648 5644 5640 5635 5631 5626 5621 5615 5609 5603 5596 5589 5583 5576 5570 5565 5560 5557 5554 5553 5553 5555 5558 5561 5566 5570 5573 5576
5727 5726 5725 5724 5723 5722 5721 5719 5718 5716 5715 5713 5711 5709 5707 5705 5703 5701 5699 5697 5695 5692 5690 5687 5684 5682 5679 5676 5672 5668 5664 5660 5657 5653 5649 5644 5640 5636 5631 5627 5622 5616 5611 5605 5598 5591 5584 5577 5570 5565 5561 5557 5553 5550 5549 5549 5552 5554 5557 5561 5565 5568 5570
5724 5722 5721 5720 5719 5718 5717 5716 5714 5713 5711 5709 5707 5706 5704 5702 5700 5698 5696 5694 5691 5689 5686 5684 5681 5678 5675 5672 5668 5665 5660 5656 5653 5649 5645 5641 5637 5632 5628 5623 5617 5612 5606 5600 5594 5587 5580 5573 5567 5563 5560 5556 5552 5549 5547 5548 5550 5552 5554 5557 5561 5563 5566
5719 5718 5717 5717 5716 5715 5714 5712 5711 5709 5707 5706 5704 5703 5701 5699 5697 5695 5693 5690 5688 5685 5683 5680 5678 5675 5672 5668 5665 5661 5657 5653 5649 5645 5641 5637 5633 5629 5624 5619 5614 5609 5603 5597 5591 5584 5577 5571 5566 5562 5559 5556 5552 5550 5548 5548 5550 5552 5553 5556 5558 5560 5562